GW4386 Weather Reports


Display with metric or nautical units.
time (UTC)temp
F
wind
direction
speed
MPH
gust
MPH
rain 1hr
in
rain 24hr
in
rain mn
in
humidity
%
barometer
mb
20260507033559 44 54 3.0 10.0 0.00 0.01 0.00 88 1011.5
20260507033059 44 54 4.0 10.0 0.00 0.01 0.00 88 1011.5
20260507032600 44 350 3.0 9.0 0.00 0.01 0.00 88 1011.5
20260507032101 44 38 3.0 9.0 0.00 0.01 0.00 88 1011.5
20260507031600 44 41 3.0 9.0 0.00 0.01 0.00 88 1011.4
20260507031059 44 327 3.0 9.0 0.00 0.01 0.00 88 1011.3
20260507030559 44 15 3.0 7.0 0.00 0.01 0.00 88 1011.2
20260507025558 44 5 3.0 10.0 0.00 0.01 0.00 88 1011.2
20260507025058 44 24 3.0 11.0 0.00 0.01 0.00 88 1011.1
20260507024558 44 66 5.0 14.0 0.00 0.01 0.00 88 1011.0
20260507024058 44 39 4.0 14.0 0.00 0.01 0.00 88 1011.0
20260507023558 44 49 4.0 11.0 0.00 0.01 0.00 88 1011.0
20260507023058 44 56 3.0 11.0 0.00 0.01 0.00 88 1010.9
20260507022559 44 323 3.0 8.0 0.00 0.01 0.00 88 1010.8
20260507022100 45 317 3.0 8.0 0.00 0.01 0.00 88 1010.8
20260507021559 45 19 4.0 11.0 0.00 0.01 0.00 88 1010.7
20260507021058 45 321 4.0 11.0 0.00 0.01 0.00 88 1010.6
20260507020558 45 36 2.0 12.0 0.00 0.01 0.00 88 1010.8
20260507020118 45 44 4.0 9.0 0.00 0.01 0.00 88 1010.8
20260507020002 45 33 4.0 9.0 0.00 0.01 0.00 88 1010.8
20260507015559 45 64 1.0 9.0 0.00 0.01 0.00 88 1010.8
20260507015059 45 36 1.0 10.0 0.00 0.01 0.00 88 1010.8
20260507014602 45 315 3.0 10.0 0.00 0.01 0.00 92 1010.7
20260507014059 45 64 3.0 10.0 0.00 0.01 0.00 92 1010.7
20260507013558 45 338 3.0 8.0 0.00 0.01 0.00 88 1010.7
20260507013059 45 313 1.0 8.0 0.00 0.01 0.00 88 1010.7
20260507012602 45 18 3.0 8.0 0.00 0.01 0.00 88 1010.7
20260507012100 45 338 3.0 6.0 0.00 0.01 0.00 88 1010.8
20260507011559 45 15 2.0 8.0 0.00 0.01 0.00 88 1010.7
20260507011059 45 15 2.0 8.0 0.00 0.01 0.00 88 1010.7
20260507010600 45 40 2.0 5.0 0.00 0.01 0.00 88 1010.7
20260507010114 45 77 0.0 4.0 0.00 0.01 0.00 88 1010.7
20260507005558 45 326 2.0 5.0 0.00 0.02 0.00 88 1010.6
20260507005057 45 317 3.0 5.0 0.00 0.02 0.00 88 1010.6
20260507004558 45 12 1.0 5.0 0.00 0.02 0.00 88 1010.7
20260507004059 45 315 1.0 5.0 0.00 0.02 0.00 88 1010.8
20260507003559 45 34 1.0 5.0 0.00 0.02 0.00 88 1010.7
20260507003058 45 50 2.0 5.0 0.00 0.02 0.00 88 1010.7
20260507002558 45 51 2.0 5.0 0.00 0.02 0.00 88 1010.7
20260507002058 45 52 2.0 6.0 0.00 0.02 0.00 88 1010.7
20260507001605 45 40 3.0 6.0 0.00 0.02 0.00 88 1010.7
20260507001058 45 54 3.0 6.0 0.00 0.02 0.00 88 1010.7
20260507000601 45 47 3.0 9.0 0.00 0.02 0.00 88 1010.6
20260507000059 45 18 4.0 9.0 0.00 0.02 0.00 88 1010.6
20260506235557 45 17 1.0 5.0 0.00 0.06 0.00 88 1010.6
20260506235100 45 19 3.0 5.0 0.00 0.06 0.00 88 1010.6
20260506234600 45 47 3.0 6.0 0.00 0.06 0.00 88 1010.6
20260506234057 45 36 1.0 7.0 0.00 0.06 0.00 88 1010.6
20260506233559 46 45 1.0 7.0 0.00 0.06 0.00 88 1010.6
20260506233100 46 43 4.0 8.0 0.00 0.06 0.00 88 1010.6
20260506232602 46 70 2.0 7.0 0.00 0.06 0.00 88 1010.6
20260506232059 46 51 3.0 6.0 0.00 0.06 0.00 88 1010.5
20260506231611 46 63 3.0 6.0 0.00 0.06 0.00 88 1010.6
20260506231059 46 46 2.0 6.0 0.00 0.06 0.00 88 1010.6
20260506230558 46 82 2.0 5.0 0.00 0.06 0.00 88 1010.4
20260506230116 46 63 1.0 5.0 0.00 0.06 0.00 88 1010.0
20260506225600 46 49 1.0 7.0 0.00 0.06 0.00 88 1010.0
20260506225059 46 350 2.0 9.0 0.00 0.06 0.00 88 1009.9
20260506224603 46 302 4.0 9.0 0.00 0.06 0.00 88 1009.8
20260506224101 46 299 2.0 6.0 0.00 0.06 0.00 88 1009.8
20260506223600 46 18 3.0 6.0 0.00 0.06 0.00 88 1009.7
20260506223103 46 214 2.0 8.0 0.00 0.06 0.00 88 1009.7
20260506222600 46 10 4.0 9.0 0.00 0.06 0.00 88 1009.7
20260506222100 47 335 2.0 7.0 0.00 0.06 0.00 88 1009.7
20260506221631 47 36 0.0 9.0 0.00 0.06 0.00 88 1009.8
20260506221501 47 38 0.0 9.0 0.00 0.06 0.00 88 1009.7
20260506221100 47 320 3.0 9.0 0.00 0.06 0.00 88 1009.7
20260506220600 47 328 2.0 9.0 0.00 0.06 0.00 88 1009.7
20260506220133 47 344 4.0 9.0 0.00 0.06 0.00 88 1009.7
20260506220005 47 33 2.0 7.0 0.00 0.06 0.06 88 1009.7
20260506215600 47 16 1.0 7.0 0.00 0.06 0.06 88 1009.6
20260506215059 47 323 3.0 6.0 0.00 0.06 0.06 88 1009.6
20260506214600 47 78 1.0 5.0 0.00 0.06 0.06 88 1009.7
20260506214101 47 50 3.0 8.0 0.00 0.06 0.06 88 1009.6
20260506213600 47 342 3.0 9.0 0.00 0.06 0.06 88 1009.7
20260506213111 47 15 4.0 9.0 0.00 0.06 0.06 88 1009.6
20260506212601 47 317 3.0 6.0 0.00 0.06 0.06 87 1009.7
20260506212104 47 331 1.0 9.0 0.00 0.06 0.06 87 1009.8
20260506212001 47 103 0.0 9.0 0.00 0.06 0.06 87 1009.8
20260506211601 47 46 3.0 9.0 0.00 0.06 0.06 87 1009.6
20260506211101 47 33 0.0 5.0 0.00 0.06 0.06 87 1009.6
20260506210601 47 64 1.0 6.0 0.00 0.06 0.06 87 1009.5
20260506210106 47 9 2.0 8.0 0.00 0.06 0.06 87 1009.6
20260506210009 47 53 2.0 8.0 0.00 0.06 0.06 87 1009.6
20260506205559 48 319 3.0 8.0 0.00 0.06 0.06 87 1009.6
20260506205059 48 346 2.0 8.0 0.00 0.06 0.06 87 1009.6
20260506204607 48 304 1.0 7.0 0.00 0.06 0.06 87 1009.4
20260506204059 48 36 3.0 8.0 0.00 0.06 0.06 87 1009.4
20260506203559 48 306 3.0 6.0 0.00 0.06 0.06 87 1009.3
20260506203002 48 47 1.0 5.0 0.00 0.06 0.06 87 1009.4
20260506202559 48 100 0.0 8.0 0.00 0.06 0.06 87 1009.3
20260506202058 48 310 2.0 8.0 0.00 0.06 0.06 87 1009.3
20260506201600 49 297 1.0 5.0 0.00 0.06 0.06 87 1009.2
20260506201059 49 36 2.0 5.0 0.00 0.06 0.06 86 1009.1
20260506200559 49 319 0.0 4.0 0.00 0.06 0.06 86 1009.2
20260506200100 49 292 1.0 4.0 0.00 0.06 0.06 86 1009.1
20260506200002 49 303 1.0 4.0 0.00 0.06 0.06 86 1009.1
20260506195600 49 342 0.0 3.0 0.00 0.06 0.06 86 1009.1
20260506195006 49 301 0.0 3.0 0.00 0.06 0.06 86 1009.1
20260506194600 49 82 1.0 4.0 0.00 0.06 0.06 86 1009.0
20260506194501 49 51 2.0 4.0 0.00 0.06 0.06 86 1009.0
20260506194100 49 34 2.0 4.0 0.00 0.06 0.06 86 1009.0
20260506194000 49 48 2.0 5.0 0.00 0.06 0.06 86 1009.0
20260506193600 49 63 2.0 6.0 0.00 0.06 0.06 86 1009.0
20260506193111 49 46 2.0 5.0 0.00 0.06 0.06 86 1009.0
20260506192600 50 74 1.0 4.0 0.00 0.06 0.06 86 1009.0
20260506192101 50 40 1.0 6.0 0.00 0.06 0.06 86 1009.0
20260506191628 50 15 3.0 6.0 0.00 0.06 0.06 86 1008.9
20260506191100 50 20 2.0 6.0 0.00 0.06 0.06 86 1008.8
20260506191003 50 26 3.0 8.0 0.00 0.06 0.06 86 1008.8
20260506190501 50 57 2.0 8.0 0.00 0.06 0.06 86 1008.7
20260506190100 50 18 1.0 8.0 0.00 0.06 0.06 86 1008.6
20260506185558 50 23 1.0 8.0 0.00 0.06 0.06 86 1008.7
20260506185058 51 329 1.0 6.0 0.00 0.06 0.06 86 1008.5
20260506184632 51 347 1.0 6.0 0.00 0.06 0.06 86 1008.4
20260506184102 51 295 2.0 9.0 0.00 0.06 0.06 86 1008.3
20260506184009 51 9 1.0 9.0 0.00 0.06 0.06 86 1008.3
20260506183604 52 257 2.0 8.0 0.00 0.06 0.06 86 1008.2
20260506183111 52 23 2.0 6.0 0.00 0.06 0.06 85 1008.2
20260506182559 52 55 3.0 6.0 0.00 0.06 0.06 86 1008.0
20260506182059 52 28 3.0 6.0 0.00 0.06 0.06 86 1008.0
20260506181602 52 22 2.0 5.0 0.00 0.06 0.06 86 1008.0
20260506181059 52 300 2.0 5.0 0.00 0.06 0.06 86 1008.0
20260506180559 53 305 1.0 6.0 0.00 0.06 0.06 86 1008.0
20260506180059 53 19 2.0 6.0 0.00 0.06 0.06 86 1008.0
20260506180002 53 350 3.0 6.0 0.00 0.06 0.06 86 1008.0
20260506175501 54 308 3.0 8.0 0.00 0.06 0.06 85 1007.9
20260506175059 54 63 3.0 8.0 0.00 0.06 0.06 85 1007.9
20260506174601 55 336 2.0 5.0 0.00 0.06 0.06 85 1007.9
20260506174103 55 345 1.0 4.0 0.00 0.06 0.06 85 1007.8
20260506173603 56 306 0.0 3.0 0.00 0.06 0.06 85 1007.7
20260506173501 56 290 0.0 3.0 0.00 0.06 0.06 85 1007.6
20260506173101 56 304 0.0 3.0 0.00 0.06 0.06 84 1007.6
20260506172600 56 44 1.0 3.0 0.00 0.06 0.06 84 1007.5
20260506172059 56 76 0.0 4.0 0.00 0.06 0.06 84 1007.5
20260506171608 56 43 1.0 5.0 0.00 0.06 0.06 83 1007.5
20260506171501 56 329 0.0 5.0 0.00 0.06 0.06 83 1007.6
20260506171100 57 38 2.0 5.0 0.00 0.06 0.06 82 1007.5
20260506171002 57 44 3.0 5.0 0.00 0.06 0.06 82 1007.5
20260506170559 57 46 0.0 5.0 0.00 0.06 0.06 82 1007.4
20260506170002 58 36 2.0 5.0 0.00 0.06 0.06 82 1007.3
20260506165603 58 317 1.0 7.0 0.00 0.06 0.06 82 1007.2
20260506165059 58 50 5.0 7.0 0.00 0.06 0.06 82 1007.1
20260506164600 58 340 1.0 5.0 0.00 0.06 0.06 82 1007.1
20260506164100 58 349 2.0 6.0 0.00 0.06 0.06 82 1007.1
20260506163600 58 13 3.0 9.0 0.00 0.06 0.06 83 1007.1
20260506163109 58 70 4.0 9.0 0.00 0.06 0.06 83 1007.1
20260506162501 58 342 3.0 7.0 0.00 0.06 0.06 83 1007.0
20260506162102 57 51 2.0 9.0 0.00 0.06 0.06 84 1007.0
20260506161501 57 62 5.0 9.0 0.00 0.06 0.06 83 1007.0
20260506161002 58 50 4.0 7.0 0.00 0.06 0.06 83 1007.0
20260506160601 58 331 2.0 8.0 0.00 0.06 0.06 83 1007.0
20260506160109 58 343 2.0 7.0 0.00 0.06 0.06 83 1006.9
20260506160002 58 17 3.0 7.0 0.00 0.06 0.06 83 1006.9
20260506155559 59 36 3.0 9.0 0.00 0.06 0.06 83 1006.8
20260506155503 59 61 2.0 9.0 0.00 0.06 0.06 83 1006.8
20260506155102 59 44 4.0 9.0 0.00 0.06 0.06 82 1006.7
20260506154600 59 25 3.0 8.0 0.00 0.06 0.06 82 1006.8
20260506154102 60 50 4.0 9.0 0.00 0.06 0.06 82 1006.7
20260506153600 60 78 4.0 9.0 0.00 0.06 0.06 81 1006.7
20260506153501 60 50 5.0 9.0 0.00 0.06 0.06 81 1006.7
20260506153100 60 48 4.0 8.0 0.00 0.06 0.06 81 1006.7
20260506153001 60 53 4.0 7.0 0.00 0.06 0.06 81 1006.7
20260506152559 60 47 5.0 7.0 0.00 0.06 0.06 80 1006.7
20260506152100 60 54 3.0 7.0 0.00 0.06 0.06 81 1006.7
20260506151601 60 34 4.0 8.0 0.00 0.06 0.06 81 1006.7
20260506151100 60 48 3.0 6.0 0.00 0.06 0.06 81 1006.8
20260506150600 60 65 4.0 6.0 0.00 0.06 0.06 81 1006.8
20260506150059 60 96 3.0 6.0 0.00 0.06 0.06 82 1006.8
20260506145600 60 49 4.0 8.0 0.00 0.07 0.06 81 1006.8
20260506145059 60 32 4.0 8.0 0.00 0.07 0.06 81 1006.7
20260506144604 60 23 4.0 6.0 0.00 0.07 0.06 81 1006.8
20260506144001 60 15 2.0 9.0 0.00 0.07 0.06 79 1006.8
20260506143600 61 27 5.0 9.0 0.00 0.07 0.06 78 1006.7
20260506143101 62 42 3.0 5.0 0.00 0.07 0.06 76 1006.8
20260506142559 62 229 0.0 2.0 0.00 0.07 0.06 75 1006.8
20260506142501 62 57 0.0 2.0 0.00 0.07 0.06 76 1006.8
20260506142003 62 207 0.0 2.0 0.00 0.07 0.06 77 1006.8
20260506141600 62 202 0.0 0.0 0.00 0.07 0.06 75 1006.8
20260506141500 62 202 0.0 0.0 0.00 0.07 0.06 75 1006.9
20260506141101 62 126 0.0 3.0 0.00 0.07 0.06 76 1006.8
20260506140600 62 182 0.0 3.0 0.00 0.07 0.06 75 1006.8
20260506140502 62 163 0.0 3.0 0.00 0.07 0.06 75 1006.9
20260506140104 62 146 0.0 3.0 0.00 0.07 0.06 76 1006.7
20260506135558 61 196 0.0 3.0 0.00 0.07 0.06 76 1006.8
20260506135058 61 230 1.0 3.0 0.00 0.07 0.06 76 1006.8
20260506134559 61 202 0.0 6.0 0.00 0.07 0.06 77 1006.9
20260506134059 61 200 2.0 8.0 0.00 0.07 0.06 76 1006.9
20260506133559 61 209 4.0 8.0 0.00 0.07 0.06 76 1007.0
20260506133102 61 215 4.0 10.0 0.00 0.07 0.06 76 1007.0
20260506132600 61 209 3.0 10.0 0.00 0.07 0.06 75 1006.8
20260506132102 62 205 1.0 8.0 0.00 0.07 0.06 75 1006.8
20260506131617 62 187 1.0 8.0 0.00 0.07 0.06 75 1006.8
20260506131100 62 197 4.0 8.0 0.00 0.07 0.06 74 1006.7
20260506130600 62 181 1.0 4.0 0.00 0.07 0.06 75 1006.7
20260506130059 62 205 1.0 4.0 0.00 0.07 0.06 74 1006.7
20260506125502 62 139 0.0 3.0 0.00 0.07 0.06 74 1006.7
20260506125059 62 182 0.0 4.0 0.00 0.07 0.06 74 1006.6
20260506124601 62 212 0.0 3.0 0.00 0.07 0.06 73 1006.6
20260506124101 63 215 0.0 5.0 0.00 0.07 0.06 73 1006.6
20260506123600 63 191 1.0 6.0 0.00 0.07 0.06 73 1006.6
20260506123101 63 217 1.0 8.0 0.00 0.07 0.06 73 1006.6
20260506123001 63 207 0.0 8.0 0.00 0.07 0.06 73 1006.6
20260506122559 63 216 4.0 8.0 0.00 0.07 0.06 72 1006.5
20260506122001 63 121 0.0 4.0 0.00 0.07 0.06 74 1006.6
20260506121602 61 93 0.0 7.0 0.00 0.07 0.06 77 1006.6
20260506121100 61 184 3.0 7.0 0.00 0.07 0.06 77 1006.9
20260506121001 61 188 2.0 7.0 0.00 0.07 0.06 78 1006.9
20260506120604 60 111 2.0 5.0 0.00 0.07 0.06 79 1006.9
20260506115558 60 310 0.0 3.0 0.00 0.07 0.06 80 1006.9
20260506115058 59 38 0.0 2.0 0.00 0.07 0.06 80 1006.9
20260506114559 59 57 0.0 2.0 0.00 0.07 0.06 80 1006.9
20260506114101 59 320 0.0 3.0 0.00 0.07 0.06 80 1006.9
20260506113559 59 182 0.0 3.0 0.00 0.07 0.06 80 1006.9
20260506113100 59 137 0.0 3.0 0.00 0.07 0.06 80 1007.0
20260506112559 59 227 0.0 3.0 0.00 0.07 0.06 80 1006.9
20260506112058 59 305 0.0 1.0 0.00 0.07 0.06 80 1006.8
20260506111559 59 65 0.0 3.0 0.00 0.07 0.06 79 1006.7
20260506111101 59 55 1.0 4.0 0.00 0.07 0.06 79 1006.6
20260506110559 59 41 0.0 4.0 0.00 0.07 0.06 80 1006.6
20260506110059 59 310 0.0 4.0 0.00 0.07 0.06 81 1006.5
20260506105559 59 292 1.0 4.0 0.00 0.07 0.06 80 1006.5
20260506105104 59 319 1.0 4.0 0.00 0.07 0.06 80 1006.4
20260506104607 59 273 0.0 4.0 0.00 0.07 0.06 80 1006.5
20260506104101 59 216 0.0 3.0 0.00 0.07 0.06 78 1006.4
20260506103600 59 53 2.0 4.0 0.00 0.07 0.06 79 1006.4
20260506103100 59 36 2.0 4.0 0.00 0.07 0.06 79 1006.4
20260506102601 59 317 0.0 4.0 0.00 0.07 0.06 79 1006.4
20260506102059 59 40 0.0 2.0 0.00 0.07 0.06 79 1006.4
20260506101600 59 209 0.0 5.0 0.00 0.07 0.06 79 1006.5
20260506101058 59 91 0.0 5.0 0.00 0.07 0.06 79 1006.5
20260506100558 59 36 2.0 4.0 0.00 0.07 0.06 80 1006.5
20260506100503 59 78 2.0 6.0 0.00 0.07 0.06 80 1006.5
20260506100114 59 86 2.0 7.0 0.00 0.07 0.06 80 1006.6
20260506100003 59 61 2.0 7.0 0.00 0.07 0.06 80 1006.6
20260506095603 59 167 2.0 7.0 0.00 0.07 0.06 80 1006.6
20260506095502 59 142 2.0 7.0 0.00 0.07 0.06 80 1006.6
20260506095105 59 38 3.0 7.0 0.01 0.07 0.06 81 1006.4
20260506095000 59 55 3.0 7.0 0.01 0.07 0.06 81 1006.4
20260506094501 59 71 3.0 9.0 0.01 0.07 0.06 81 1006.4
20260506094059 59 59 4.0 9.0 0.01 0.07 0.06 84 1006.3
20260506093600 58 49 2.0 6.0 0.01 0.07 0.06 85 1006.3
20260506093100 58 54 3.0 6.0 0.01 0.07 0.06 85 1006.5
20260506093001 58 36 3.0 5.0 0.01 0.07 0.06 86 1006.5
20260506092600 57 336 2.0 5.0 0.01 0.07 0.06 86 1006.5
20260506092504 57 324 1.0 5.0 0.01 0.07 0.06 86 1006.5
20260506092059 56 55 2.0 5.0 0.01 0.07 0.06 86 1006.6
20260506091601 56 319 1.0 4.0 0.01 0.07 0.06 87 1006.6
20260506091100 56 23 1.0 3.0 0.01 0.07 0.06 87 1006.6
20260506090559 55 124 0.0 5.0 0.01 0.07 0.06 87 1006.5
20260506090101 55 338 0.0 9.0 0.01 0.07 0.06 86 1006.2
20260506085558 55 64 5.0 9.0 0.01 0.07 0.06 85 1006.0
20260506085059 55 51 3.0 10.0 0.00 0.06 0.06 84 1006.2
20260506084604 55 27 5.0 10.0 0.00 0.06 0.06 83 1006.3
20260506084100 55 29 4.0 6.0 0.00 0.06 0.06 83 1006.5
20260506083559 55 34 1.0 7.0 0.00 0.06 0.06 83 1006.5
20260506083100 55 32 3.0 7.0 0.00 0.06 0.06 82 1006.7
20260506082558 55 46 2.0 9.0 0.00 0.06 0.06 82 1006.7
20260506082059 55 53 4.0 9.0 0.00 0.06 0.06 82 1006.6
20260506081559 55 36 4.0 7.0 0.00 0.06 0.06 82 1006.5
20260506081058 55 72 2.0 12.0 0.00 0.06 0.06 82 1006.4
20260506080600 55 47 6.0 12.0 0.00 0.06 0.06 82 1006.3
20260506073059 54 103 5.0 15.0 0.00 0.06 0.06 84 1006.5
20260506072559 53 42 5.0 15.0 0.00 0.06 0.06 84 1006.3
20260506072100 53 70 7.0 13.0 0.00 0.06 0.06 84 1006.2
20260506071601 53 39 7.0 13.0 0.00 0.06 0.06 85 1006.4
20260506071102 53 49 8.0 14.0 0.00 0.06 0.06 85 1006.4
20260506070600 53 70 7.0 14.0 0.00 0.06 0.06 85 1006.3
20260506062059 51 17 6.0 14.0 0.00 0.06 0.06 86 1006.6
20260506061559 51 113 8.0 14.0 0.00 0.06 0.06 86 1006.7
20260506061059 51 49 4.0 14.0 0.00 0.06 0.06 86 1006.8
20260506060600 51 59 4.0 14.0 0.00 0.06 0.06 86 1006.7
20260506051100 49 49 7.0 15.0 0.00 0.06 0.06 88 1006.8
20260506050559 49 59 8.0 15.0 0.00 0.06 0.06 88 1007.0
20260506045058 49 49 6.0 12.0 0.00 0.06 0.06 87 1007.0
20260506044558 49 42 5.0 13.0 0.00 0.06 0.06 87 1007.1
20260506044058 49 69 4.0 15.0 0.00 0.06 0.06 87 1007.3
20260506043600 49 50 5.0 12.0 0.00 0.06 0.06 87 1007.4
20260506043059 49 29 4.0 12.0 0.00 0.06 0.06 87 1007.5
20260506042559 49 49 6.0 15.0 0.00 0.06 0.06 87 1007.6
20260506042101 49 53 9.0 15.0 0.00 0.06 0.06 87 1007.7
20260506041605 49 53 7.0 12.0 0.00 0.06 0.06 87 1007.7
20260506041058 49 48 6.0 16.0 0.00 0.06 0.06 87 1007.9
20260506040559 48 52 10.0 16.0 0.00 0.06 0.06 87 1007.9
20260506040110 48 30 7.0 12.0 0.00 0.06 0.06 87 1008.0
20260506035559 48 59 5.0 11.0 0.00 0.06 0.06 87 1008.0
20260506035059 48 70 6.0 11.0 0.00 0.06 0.06 87 1008.0
20260506034604 48 51 6.0 11.0 0.00 0.06 0.06 87 1008.0
20260506034059 48 51 6.0 11.0 0.00 0.06 0.06 86 1008.1